Content
SEND FEEDBACK

Daily
Averages
Monthly
Summary
United States of America

UMATAC, GUAM


Home > North America > United States > Guam
Elevation: 190 feet     Latitude: 13 17N     Longitude: 144 40E

WEATHER
 
SELECT A DAY
Number of Records: 351,545;   Date Range: 1/1/95 - 10/19/14
 
SHARE

PRINT THIS DATA

[ ← Previous Day ]
WEATHER ALMANAC - MARCH 11, 2013
[ Next Day → ]
[ °C ]   °F
Weather ElementAverageHighLow
Temperature78 °F84.2 °F (11:03 am)73.4 °F (5:35 am)
Dewpoint73.6 °F75.4 °F (8:55 am)71.6 °F (12:53 am)
Humidity86.8 %100 % (6:12 am)69 % (1:55 pm)
Barometer29.84 in29.89 in (9:55 am)29.78 in (3:25 pm)
Wind Speed11.3 mph17.3 mph (9:49 pm)
Wind Gust21.9 mph (2:14 pm)
Weather ElementAverage
Visibility9.1 mi
Wind DirectionENE (56.6 °)

Weather ElementTotal
Precipitation---
Cooling Degree Days13.8 (Base 65)
Growing Degree Days28.8 (Base 50)
Averaged from 127 records on March 11, 2013
WEATHER CONDITIONS BREAKOUT
WIND DIRECTION BREAKOUT
WEATHER BY HOUR - MARCH 11, 2013
[ °C ]   °F
Local TimeTemperatureDewpointHumidityBarometerVisibilityWind DirectionWind SpeedGust SpeedPrecipitationEventsConditions
12:07 AM77.0 °F73.4 °F89 %29.87 in10.0 miENE (60°)15.0 mphScattered Clouds
12:53 AM77.0 °F71.6 °F83 %29.87 in10.0 miENE (60°)10.4 mphMostly Cloudy
12:55 AM76.3 °F72.3 °F87 %29.87 in10.0 miENE (60°)11.5 mphMostly Cloudy
1:03 AM77.0 °F73.4 °F89 %29.86 in10.0 miENE (60°)9.2 mphScattered Clouds
1:09 AM77.0 °F73.4 °F89 %29.86 in10.0 miENE (60°)11.5 mphMostly Cloudy
1:11 AM77.0 °F73.4 °F89 %29.86 in10.0 miENE (60°)10.4 mphScattered Clouds
1:28 AM77.0 °F73.4 °F89 %29.86 in10.0 miEast (80°)11.5 mphRainLight Rain
1:38 AM75.2 °F71.6 °F89 %29.86 in10.0 miENE (60°)6.9 mphMostly Cloudy
1:46 AM75.2 °F73.4 °F94 %29.86 in10.0 miENE (70°)8.1 mphMostly Cloudy
1:54 AM77.0 °F73.4 °F89 %29.86 in10.0 miENE (60°)9.2 mphMostly Cloudy
1:55 AM76.1 °F73.0 °F90 %29.86 in10.0 miENE (60°)10.4 mph0.00 inMostly Cloudy
2:55 AM76.3 °F72.5 °F88 %29.85 in10.0 miENE (60°)10.4 mphMostly Cloudy
3:55 AM76.1 °F72.5 °F89 %29.85 in10.0 miNE (50°)8.1 mphScattered Clouds
4:55 AM76.6 °F72.9 °F88 %29.85 in10.0 miNE (50°)6.9 mphOvercast
5:06 AM75.2 °F71.6 °F89 %29.85 in10.0 miEast (100°)8.1 mphOvercast
5:15 AM75.2 °F71.6 °F89 %29.85 in10.0 miESE (120°)5.8 mphMostly Cloudy
5:16 AM75.2 °F71.6 °F89 %29.85 in10.0 miSE (130°)5.8 mphMostly Cloudy
5:35 AM73.4 °F71.6 °F94 %29.85 in10.0 miSE (130°)6.9 mphRainLight Rain
5:46 AM73.4 °F71.6 °F94 %29.85 in10.0 miSSE (150°)4.6 mphRainLight Rain
5:47 AM73.4 °F71.6 °F94 %29.85 in10.0 miSSE (160°)4.6 mphMostly Cloudy
5:52 AM73.4 °F71.6 °F94 %29.85 in10.0 miCalmMostly Cloudy
5:54 AM73.4 °F71.6 °F94 %29.85 in10.0 miCalmScattered Clouds
5:55 AM73.8 °F72.0 °F94 %29.85 in10.0 miCalm0.00 inScattered Clouds
5:56 AM73.4 °F71.6 °F94 %29.85 in10.0 miSE (140°)3.5 mphMostly Cloudy
6:01 AM73.4 °F71.6 °F94 %29.86 in8.0 miSE (130°)5.8 mphRainLight Rain
6:03 AM73.4 °F71.6 °F94 %29.86 in7.0 miSE (130°)6.9 mphRainRain
6:09 AM73.4 °F71.6 °F94 %29.86 in4.0 miEast (90°)8.1 mphRainRain
6:11 AM73.4 °F71.6 °F94 %29.86 in3.0 miEast (90°)8.1 mphRainLight Rain
6:12 AM73.4 °F73.4 °F100 %29.86 in3.0 miEast (90°)8.1 mphRainRain
6:13 AM73.4 °F73.4 °F100 %29.86 in3.0 miEast (90°)6.9 mphRainRain
6:15 AM73.4 °F71.6 °F94 %29.86 in3.0 miEast (90°)5.8 mphRainRain
6:38 AM73.4 °F73.4 °F100 %29.87 in8.0 miEast (100°)3.5 mphMostly Cloudy
6:55 AM74.3 °F73.4 °F97 %29.88 in10.0 miCalm0.00 inMostly Cloudy
6:59 AM73.4 °F73.4 °F100 %29.88 in10.0 miCalmMostly Cloudy
7:00 AM73.4 °F73.4 °F100 %29.88 in10.0 miCalmMostly Cloudy
7:02 AM73.4 °F73.4 °F100 %29.88 in10.0 miCalmScattered Clouds
7:55 AM77.9 °F74.5 °F89 %29.88 in10.0 miNE (40°)10.4 mphClear
8:55 AM79.9 °F75.4 °F86 %29.88 in10.0 miNE (40°)13.8 mphScattered Clouds
8:56 AM80.6 °F75.2 °F84 %29.88 in10.0 miNE (40°)13.8 mphMostly Cloudy
8:59 AM80.6 °F75.2 °F84 %29.88 in10.0 miNE (40°)13.8 mphScattered Clouds
9:55 AM81.7 °F72.3 °F73 %29.89 in10.0 miNE (40°)16.1 mphClear
10:55 AM82.9 °F72.7 °F71 %29.88 in10.0 miNNE (20°)13.8 mphPartly Cloudy
11:03 AM84.2 °F73.4 °F70 %29.88 in10.0 miNNE (30°)13.8 mphMostly Cloudy
11:19 AM82.4 °F73.4 °F74 %29.87 in10.0 miNorth (10°)13.8 mphScattered Clouds
11:38 AM82.4 °F73.4 °F74 %29.87 in10.0 miNNE (30°)13.8 mphMostly Cloudy
11:41 AM82.4 °F73.4 °F74 %29.87 in10.0 miNNE (20°)15.0 mphMostly Cloudy
11:48 AM82.4 °F73.4 °F74 %29.87 in10.0 miNNE (20°)15.0 mphMostly Cloudy
11:55 AM82.6 °F73.8 °F75 %29.86 in10.0 miNNE (20°)13.8 mphMostly Cloudy
12:03 PM82.4 °F73.4 °F74 %29.86 in10.0 miNNE (30°)15.0 mphMostly Cloudy
12:09 PM82.4 °F73.4 °F74 %29.86 in10.0 miNNE (20°)15.0 mphMostly Cloudy
12:13 PM82.4 °F73.4 °F74 %29.86 in10.0 miNNE (20°)15.0 mphMostly Cloudy
12:45 PM82.4 °F73.4 °F74 %29.84 in10.0 miNE (40°)12.7 mphMostly Cloudy
12:55 PM83.3 °F73.6 °F72 %29.83 in10.0 miNNE (30°)12.7 mphScattered Clouds
1:07 PM82.4 °F73.4 °F74 %29.83 in10.0 miNorth (10°)13.8 mphMostly Cloudy
1:25 PM82.4 °F73.4 °F74 %29.82 in10.0 miNNE (20°)13.8 mphMostly Cloudy
1:40 PM82.4 °F73.4 °F74 %29.82 in10.0 miNNE (20°)13.8 mphMostly Cloudy
1:44 PM82.4 °F73.4 °F74 %29.82 in10.0 miNNE (20°)15.0 mphScattered Clouds
1:55 PM83.5 °F72.5 °F69 %29.81 in10.0 miNNE (20°)15.0 mphScattered Clouds
2:14 PM82.4 °F73.4 °F74 %29.81 in10.0 miNNE (30°)16.1 mph21.9 mphMostly Cloudy
2:43 PM82.4 °F75.2 °F79 %29.80 in10.0 miNorth (10°)13.8 mphMostly Cloudy
2:55 PM81.1 °F74.3 °F80 %29.79 in10.0 miNorth (10°)13.8 mphMostly Cloudy
3:00 PM80.6 °F75.2 °F84 %29.79 in10.0 miNorth (10°)11.5 mphScattered Clouds
3:01 PM80.6 °F75.2 °F84 %29.79 in10.0 miNorth (360°)11.5 mphMostly Cloudy
3:04 PM80.6 °F73.4 °F79 %29.79 in10.0 miNorth (360°)12.7 mphScattered Clouds
3:06 PM82.4 °F73.4 °F74 %29.79 in10.0 miNorth (360°)13.8 mphMostly Cloudy
3:25 PM80.6 °F75.2 °F84 %29.78 in10.0 miNorth (360°)12.7 mphMostly Cloudy
3:32 PM80.6 °F75.2 °F84 %29.78 in10.0 miNorth (10°)11.5 mphOvercast
3:48 PM82.4 °F75.2 °F79 %29.78 in10.0 miNorth (10°)12.7 mphOvercast
3:49 PM82.4 °F75.2 °F79 %29.78 in10.0 miNorth (10°)11.5 mphOvercast
3:55 PM81.3 °F74.3 °F79 %29.78 in10.0 miNNE (20°)11.5 mphMostly Cloudy
4:02 PM80.6 °F73.4 °F79 %29.78 in10.0 miNNE (20°)8.1 mphLight Drizzle
4:06 PM80.6 °F75.2 °F84 %29.78 in10.0 miNNE (30°)12.7 mphLight Drizzle
4:10 PM80.6 °F75.2 °F84 %29.78 in10.0 miNNE (30°)11.5 mphLight Drizzle
4:12 PM80.6 °F75.2 °F84 %29.78 in10.0 miNNE (20°)10.4 mphMostly Cloudy
4:14 PM80.6 °F73.4 °F79 %29.78 in10.0 miNNE (20°)11.5 mphMostly Cloudy
4:24 PM82.4 °F73.4 °F74 %29.78 in10.0 miNNE (30°)10.4 mphScattered Clouds
4:25 PM82.4 °F73.4 °F74 %29.78 in10.0 miNNE (30°)11.5 mphMostly Cloudy
4:40 PM80.6 °F73.4 °F79 %29.79 in10.0 miNNE (30°)12.7 mphScattered Clouds
4:51 PM80.6 °F75.2 °F84 %29.79 in10.0 miNNE (30°)13.8 mphMostly Cloudy
4:55 PM81.0 °F74.3 °F80 %29.79 in10.0 miNNE (20°)13.8 mph0.00 inMostly Cloudy
4:57 PM80.6 °F73.4 °F79 %29.79 in10.0 miNNE (30°)11.5 mphMostly Cloudy
5:27 PM80.6 °F73.4 °F79 %29.80 in10.0 miNNE (20°)12.7 mphMostly Cloudy
5:52 PM78.8 °F73.4 °F83 %29.80 in10.0 miNE (40°)10.4 mphMostly Cloudy
5:55 PM79.0 °F73.0 °F82 %29.80 in10.0 miNE (40°)10.4 mphMostly Cloudy
5:58 PM78.8 °F73.4 °F83 %29.80 in8.0 miNNE (20°)9.2 mphRainRain
6:06 PM78.8 °F75.2 °F89 %29.80 in8.0 miNNE (30°)10.4 mphRainLight Rain
6:07 PM78.8 °F75.2 °F89 %29.81 in9.0 miNNE (30°)11.5 mphOvercast
6:18 PM78.8 °F75.2 °F89 %29.81 in10.0 miNE (40°)13.8 mphMostly Cloudy
6:21 PM78.8 °F75.2 °F89 %29.81 in10.0 miNE (40°)10.4 mphMostly Cloudy
6:22 PM78.8 °F75.2 °F89 %29.81 in10.0 miNE (40°)10.4 mphMostly Cloudy
6:32 PM77.0 °F75.2 °F94 %29.81 in10.0 miNE (40°)13.8 mphMostly Cloudy
6:46 PM77.0 °F73.4 °F89 %29.81 in10.0 miNE (40°)11.5 mphMostly Cloudy
6:50 PM77.0 °F73.4 °F89 %29.81 in10.0 miNNE (30°)12.7 mphRainRain
6:51 PM77.0 °F75.2 °F94 %29.82 in10.0 miNNE (30°)13.8 mphRainRain
6:55 PM77.2 °F74.5 °F91 %29.81 in6.0 miENE (70°)8.1 mph0.00 inRainHeavy Rain
7:03 PM77.0 °F75.2 °F94 %29.82 in7.0 miNE (40°)12.7 mphRainLight Rain
7:05 PM77.0 °F75.2 °F94 %29.81 in9.0 miNE (40°)12.7 mphMostly Cloudy
7:17 PM77.0 °F73.4 °F89 %29.82 in10.0 miNE (40°)12.7 mphMostly Cloudy
7:22 PM77.0 °F73.4 °F89 %29.82 in10.0 miNE (40°)12.7 mphScattered Clouds
7:55 PM76.8 °F73.4 °F89 %29.82 in10.0 miNE (40°)12.7 mph0.00 inPartly Cloudy
8:09 PM77.0 °F73.4 °F89 %29.83 in10.0 miNE (40°)15.0 mphMostly Cloudy
8:11 PM77.0 °F73.4 °F89 %29.83 in10.0 miNE (40°)16.1 mphMostly Cloudy
8:37 PM77.0 °F73.4 °F89 %29.83 in10.0 miNNE (30°)16.1 mphLight Drizzle
8:45 PM75.2 °F73.4 °F94 %29.83 in10.0 miNNE (30°)12.7 mphMostly Cloudy
8:47 PM75.2 °F73.4 °F94 %29.83 in10.0 miNNE (30°)13.8 mphMostly Cloudy
8:55 PM75.6 °F74.1 °F95 %29.84 in10.0 miNE (40°)11.5 mph0.00 inMostly Cloudy
9:23 PM75.2 °F73.4 °F94 %29.84 in10.0 miNE (40°)11.5 mphMostly Cloudy
9:49 PM77.0 °F73.4 °F89 %29.85 in10.0 miNE (50°)17.3 mphMostly Cloudy
9:55 PM76.3 °F74.1 °F93 %29.85 in10.0 miNE (40°)15.0 mphMostly Cloudy
10:23 PM77.0 °F75.2 °F94 %29.85 in10.0 miNNE (30°)11.5 mphMostly Cloudy
10:26 PM77.0 °F75.2 °F94 %29.85 in10.0 miNNE (30°)13.8 mphMostly Cloudy
10:30 PM77.0 °F75.2 °F94 %29.85 in10.0 miNNE (30°)15.0 mphMostly Cloudy
10:36 PM77.0 °F75.2 °F94 %29.85 in10.0 miNE (40°)16.1 mphOvercast
10:55 PM76.8 °F74.3 °F92 %29.85 in9.0 miNE (50°)12.7 mph0.00 inRainLight Rain
10:56 PM77.0 °F75.2 °F94 %29.85 in9.0 miNE (50°)11.5 mphRainLight Rain
11:05 PM77.0 °F73.4 °F89 %29.85 in7.0 miENE (70°)16.1 mphRainRain
11:07 PM77.0 °F73.4 °F89 %29.85 in4.0 miENE (60°)13.8 mphRainRain
11:20 PM75.2 °F73.4 °F94 %29.85 in5.0 miENE (70°)15.0 mphRainLight Rain
11:23 PM75.2 °F73.4 °F94 %29.85 in5.0 miENE (70°)17.3 mphRainLight Rain
11:29 PM75.2 °F73.4 °F94 %29.85 in4.0 miEast (80°)16.1 mphRainLight Rain
11:31 PM75.2 °F73.4 °F94 %29.85 in4.0 miEast (80°)16.1 mphRainLight Rain
11:32 PM75.2 °F73.4 °F94 %29.85 in4.0 miEast (80°)16.1 mphRainLight Rain
11:47 PM75.2 °F73.4 °F94 %29.85 in6.0 miEast (80°)16.1 mph20.7 mphRainLight Rain
11:49 PM75.2 °F73.4 °F94 %29.85 in4.0 miENE (70°)15.0 mph20.7 mphRainLight Rain
11:55 PM74.7 °F73.2 °F95 %29.85 in5.0 miEast (80°)12.7 mph0.00 inRainLight Rain
11:57 PM75.2 °F73.4 °F94 %29.85 in6.0 miEast (80°)12.7 mphRainLight Rain
11:59 PM75.2 °F73.4 °F94 %29.85 in8.0 miEast (80°)11.5 mphOvercast
Hourly data recorded from PGUA, located miles away from Umatac, Guam







STORIES FROM OUR PARTNERS